Location: Biltmore Gardens
(41.6070°N, 83.4666°W)
Time: 21:43:19
(UTC+00:00)

N. Korean satellite - Pass Details

Date: 05 March 2021
Orbit: 452 x 499 km, 97.2° (Epoch: 15 April)

Event Time Altitude Azimuth Distance (km) Brightness Sun altitude
Rises 10:48:43 0° 15° (NNE) 2,531 10.5 -14.5°
Reaches altitude 10° 10:50:47 10° 19° (NNE) 1,657 9.6 -14.1°
Maximum altitude 10:54:19 63° 101° (E) 545 7.1 -13.4°
Drops below altitude 10° 10:57:53 10° 183° (S) 1,669 9.2 -12.8°
Sets 10:59:58 0° 186° (S) 2,552 10.1 -12.4°
